[[{"header":{"parameterUnit":"m.s-1","parameterCategory":1,"la1":30.2991,"la2":30.254,"lo1":-89.0895,"lo2":-89.0444,"dy":0.0017,"dx":0.0017,"nx":28,"ny":28,"refTime":"2023-11-08T09:00:00:Z","depth":0,"parameterNumber":2,"parameterNumberName":"U-component_of_WINDS"},"data":[0,0,0,0,0,0,0,0,0,0,0,0,0,0,0,0,0,0,0,0,0,0,0,0,0,0,0,0,0,0,0,0,0,0,0,0,0,0,0,0,0,0,0,0,0,0,0,0,0,0,0,0,0,0,0,0,0,0,-1.0659,-1.0659,0,-1.0707,-1.0708,-1.0708,-1.0684,-1.0682,-1.0681,-1.068,-1.073,-1.0733,-1.0735,0,0,0,0,0,0,0,0,0,0,0,0,0,-1.0545,-1.0547,-1.0659,-1.0659,-1.066,-1.0707,-1.0708,-1.0708,-1.0684,-1.0682,-1.0681,-1.0679,-1.073,-1.0733,-1.0736,0,0,0,0,0,0,0,0,0,0,0,0,0,-1.0594,-1.0548,-1.0659,-1.0653,-1.0653,-1.0707,-1.0708,-1.0709,-1.0684,-1.0682,-1.068,-1.0679,-1.0729,-1.0732,-1.0736,-1.0798,0,0,-1.0748,-1.0749,0,0,0,0,0,0,0,0,-1.0592,-1.0598,-1.0653,-1.0654,-1.0654,-1.0687,-1.0686,-1.0739,-1.0685,-1.0673,-1.068,-1.0678,-1.0718,-1.0722,-1.0736,-1.08,-1.0803,-1.0748,-1.075,-1.0752,-1.0753,0,0,0,0,0,0,0,-1.0588,-1.0596,-1.0678,-1.0654,-1.0655,-1.0649,-1.0653,-1.0696,-1.0705,-1.0673,-1.0672,-1.0678,-1.0717,-1.0732,-1.0737,-1.0803,-1.0748,-1.0751,-1.0754,-1.0755,-1.092,-1.0922,0,0,0,0,0,0,-1.0585,-1.0594,-1.0676,-1.0679,-1.0617,-1.0652,-1.0658,-1.0679,-1.0705,-1.0707,-1.0679,-1.0676,-1.0726,-1.0732,-1.0738,-1.0812,-1.0752,-1.0756,-1.0758,-1.0918,-1.0921,-1.0923,0,0,0,0,0,0,-1.0583,-1.0593,-1.0674,-1.0636,-1.0646,-1.0656,-1.068,-1.0681,-1.0695,-1.0709,-1.0711,-1.0692,-1.0725,-1.0733,-1.0783,-1.0813,-1.0757,-1.0761,-1.0916,-1.0919,-1.0922,-1.096,0,0,0,0,0,0,-1.0579,-1.0592,-1.0615,-1.0637,-1.0648,-1.0718,-1.0682,-1.0683,-1.0702,-1.0698,-1.0722,-1.0724,-1.0724,-1.0778,-1.0787,-1.0817,-1.0764,-1.0913,-1.0917,-1.0921,-1.0956,-1.0964,-1.0971,0,0,0,0,0,-1.0575,-1.0625,-1.0617,-1.0627,-1.0678,-1.072,-1.0727,-1.0726,-1.0704,-1.0728,-1.0737,-1.0723,-1.0809,-1.0783,-1.0793,-1.0825,-1.0911,-1.0916,-1.0921,-1.0953,-1.0962,-1.097,0,0,0,0,0,0,-1.0607,-1.0627,-1.0619,-1.0676,-1.0697,-1.0716,-1.0746,-1.0736,-1.0763,-1.0759,-1.0757,-1.0762,-1.0814,-1.0825,-1.0796,-1.0886,-1.0857,-1.0864,-1.0877,-1.0887,-1.0894,-1.089,-1.0767,0,0,0,0,0,-1.0621,-1.0653,-1.0669,-1.0718,-1.0729,-1.0736,-1.0754,-1.0751,-1.0772,-1.0781,-1.0794,-1.0815,-1.0846,-1.0867,-1.0897,-1.0957,-1.0962,-1.0985,-1.0992,-1.0998,-1.1004,-1.1036,-1.1046,-1.0939,-1.0939,-1.0938,0,0,-1.0649,-1.0664,-1.0685,-1.0725,-1.074,-1.0774,-1.0743,-1.078,-1.0805,-1.0787,-1.0834,-1.0845,-1.0868,-1.0923,-1.0949,-1.0934,-1.1035,-1.1004,-1.1009,-1.1011,-1.1042,-1.1052,-1.1061,-1.0942,-1.0941,-1.0941,0,0,-1.0718,-1.0733,-1.0775,-1.0791,-1.0814,-1.0819,-1.0829,-1.085,-1.0855,-1.0903,-1.089,-1.092,-1.0974,-1.0991,-1.1007,-1.1082,-1.107,-1.1092,-1.113,-1.1161,-1.117,-1.1177,-1.1203,-1.1212,-1.1098,-1.1098,-1.1098,0,-1.075,-1.08,-1.0798,-1.0836,-1.0854,-1.0838,-1.0881,-1.0896,-1.0929,-1.0941,-1.0925,-1.0992,-1.1007,-1.1066,-1.1084,-1.1097,-1.1109,-1.1089,-1.1169,-1.1176,-1.1183,-1.1208,-1.1217,-1.11,-1.11,-1.11,-1.1099,0,-1.0839,-1.0874,-1.0905,-1.0936,-1.0957,-1.0997,-1.1001,-1.1023,-1.1018,-1.1024,-1.1073,-1.109,-1.1123,-1.1136,-1.1133,-1.1195,-1.1185,-1.1169,-1.1138,-1.1196,-1.1219,-1.1228,-1.1104,-1.1103,-1.1102,-1.1101,0,0,-1.0929,-1.0958,-1.0969,-1.0983,-1.1007,-1.1034,-1.1074,-1.1105,-1.1123,-1.1146,-1.1179,-1.1225,-1.121,-1.1228,-1.1226,-1.1253,-1.131,-1.1233,-1.1234,-1.1246,-1.1379,-1.139,-1.1401,-1.1303,-1.1305,-1.1306,-1.1376,0,-1.0999,-1.1068,-1.1066,-1.113,-1.1161,-1.1147,-1.1181,-1.12,-1.1206,-1.1234,-1.1242,-1.1274,-1.1252,-1.1262,-1.1289,-1.1298,-1.1337,-1.1293,-1.1333,-1.1334,-1.1327,-1.1413,-1.1426,-1.1491,-1.1385,-1.1387,-1.1388,0,-1.109,-1.1115,-1.1182,-1.1201,-1.1214,-1.1245,-1.1273,-1.13,-1.1321,-1.1324,-1.1343,-1.1337,-1.1377,-1.1346,-1.14,-1.137,-1.1387,-1.1393,-1.1396,-1.1399,-1.1364,-1.1418,-1.1512,-1.1521,-1.1402,-1.1401,-1.14,0,-1.1149,-1.1199,-1.1245,-1.1257,-1.1281,-1.1302,-1.1313,-1.1332,-1.1351,-1.1376,-1.1388,-1.1417,-1.1433,-1.1456,-1.1458,-1.1435,-1.1512,-1.1482,-1.1515,-1.1515,-1.1532,-1.153,-1.1629,-1.1544,-1.1543,-1.1543,-1.1543,0,-1.1227,-1.1268,-1.1271,-1.13,-1.1345,-1.1343,-1.1388,-1.1397,-1.1414,-1.1443,-1.1433,-1.1461,-1.1462,-1.149,-1.1492,-1.1536,-1.1544,-1.1547,-1.1546,-1.1547,-1.1547,-1.1557,-1.1552,-1.1546,-1.1545,-1.1545,-1.1544,0,-1.13,-1.1304,-1.1353,-1.1371,-1.1376,-1.1409,-1.1424,-1.1451,-1.1456,-1.1494,-1.1502,-1.1511,-1.1544,-1.1548,-1.1587,-1.1587,-1.164,-1.1636,-1.1633,-1.1632,-1.1665,-1.1662,-1.1773,-1.1787,-1.1694,-1.1695,-1.1695,0,-1.1349,-1.138,-1.1401,-1.142,-1.1432,-1.1462,-1.1481,-1.148,-1.15,-1.1526,-1.155,-1.1581,-1.1607,-1.166,-1.167,-1.1699,-1.1695,-1.1732,-1.1699,-1.1698,-1.1694,-1.1692,-1.1695,-1.1738,-1.1739,-1.174,-1.174,0,-1.1436,-1.1436,-1.1463,-1.1491,-1.1513,-1.1536,-1.1556,-1.1572,-1.1574,-1.1597,-1.163,-1.165,-1.1689,-1.1721,-1.1749,-1.1761,-1.1751,-1.1751,-1.176,-1.176,-1.1757,-1.1758,-1.165,-1.1748,-1.1747,-1.1747,-1.1746,-1.1746,-1.1498,-1.1524,-1.1543,-1.1573,-1.1589,-1.1608,-1.1634,-1.1642,-1.1669,-1.1701,-1.1699,-1.1735,-1.1755,-1.1792,-1.1805,-1.1834,-1.1822,-1.1835,-1.1838,-1.1841,-1.1844,-1.1753,-1.1839,-1.1839,-1.1839,-1.1839,-1.1839,0,-1.1583,-1.1594,-1.1622,-1.1651,-1.1675,-1.1663,-1.1685,-1.1706,-1.1738,-1.1757,-1.1782,-1.182,-1.185,-1.1862,-1.1891,-1.1912,-1.1908,-1.192,-1.1918,-1.192,-1.1854,-1.1843,-1.1922,-1.1922,-1.1922,-1.1922,-1.1922,-1.1922,-1.163,-1.1674,-1.1677,-1.1728,-1.1739,-1.1774,-1.1787,-1.1805,-1.182,-1.1862,-1.1887,-1.1894,-1.191,-1.1941,-1.1968,-1.197,-1.1981,-1.1995,-1.1995,-1.1933,-1.1925,-1.1917,-1.1906,-1.1997,-1.1998,-1.2059,-1.206,-1.206]},{"header":{"parameterUnit":"m.s-1","parameterCategory":1,"la1":30.2991,"la2":30.254,"lo1":-89.0895,"lo2":-89.0444,"dy":0.0017,"dx":0.0017,"nx":28,"ny":28,"refTime":"2023-11-08T09:00:00:Z","depth":0,"parameterNumber":3,"parameterNumberName":"V-component_of_WINDS"},"data":[0,0,0,0,0,0,0,0,0,0,0,0,0,0,0,0,0,0,0,0,0,0,0,0,0,0,0,0,0,0,0,0,0,0,0,0,0,0,0,0,0,0,0,0,0,0,0,0,0,0,0,0,0,0,0,0,0,0,0.1564,0.1564,0,0.1611,0.1611,0.1612,0.1626,0.1626,0.1626,0.1626,0.1675,0.1677,0.1678,0,0,0,0,0,0,0,0,0,0,0,0,0,0.1489,0.149,0.1564,0.1564,0.1565,0.161,0.1611,0.1612,0.1626,0.1626,0.1626,0.1625,0.1675,0.1677,0.1678,0,0,0,0,0,0,0,0,0,0,0,0,0,0.1527,0.1491,0.1563,0.1577,0.1579,0.161,0.1611,0.1612,0.1626,0.1626,0.1626,0.1625,0.1674,0.1676,0.1679,0.17,0,0,0.1686,0.1687,0,0,0,0,0,0,0,0,0.1525,0.153,0.1575,0.1577,0.1578,0.1612,0.1603,0.1641,0.1626,0.1608,0.1626,0.1625,0.1655,0.1658,0.1668,0.1702,0.1704,0.1686,0.1687,0.1688,0.1689,0,0,0,0,0,0,0,0.1522,0.1528,0.1582,0.1575,0.1578,0.1582,0.1587,0.161,0.1633,0.161,0.1611,0.1616,0.1656,0.1666,0.1669,0.1705,0.1686,0.1688,0.1689,0.169,0.1761,0.1761,0,0,0,0,0,0,0.1517,0.1526,0.1581,0.1584,0.155,0.1584,0.159,0.1602,0.1633,0.1637,0.1617,0.1617,0.1662,0.1667,0.1671,0.1699,0.1688,0.169,0.1692,0.176,0.1761,0.1761,0,0,0,0,0,0,0.1515,0.1522,0.1579,0.1555,0.1563,0.1586,0.1599,0.1603,0.1613,0.1638,0.1642,0.1623,0.1662,0.1668,0.1693,0.1701,0.1691,0.1694,0.176,0.176,0.1761,0.1755,0,0,0,0,0,0,0.1513,0.1521,0.1529,0.1555,0.1564,0.1599,0.16,0.1604,0.1617,0.1618,0.1645,0.1649,0.1662,0.1689,0.1695,0.1704,0.1695,0.1759,0.176,0.1761,0.1754,0.1755,0.1756,0,0,0,0,0,0.1511,0.1525,0.1529,0.1535,0.1574,0.1599,0.1604,0.1619,0.1617,0.1626,0.1642,0.1648,0.1699,0.1692,0.1698,0.1708,0.1759,0.176,0.1761,0.1754,0.1755,0.1756,0,0,0,0,0,0,0.1499,0.1529,0.1533,0.1557,0.1575,0.1602,0.1612,0.1619,0.1639,0.1639,0.1657,0.1663,0.1687,0.17,0.1691,0.1731,0.1729,0.1732,0.1722,0.1723,0.1724,0.1721,0.1697,0,0,0,0,0,0.1499,0.1517,0.1542,0.156,0.1569,0.1589,0.1601,0.1611,0.1631,0.1639,0.1657,0.1677,0.1698,0.1711,0.1731,0.1756,0.1764,0.1767,0.1767,0.1768,0.177,0.1786,0.1788,0.1765,0.1765,0.1765,0,0,0.15,0.1518,0.1528,0.1558,0.1574,0.1593,0.1596,0.1615,0.163,0.1642,0.1667,0.1681,0.1705,0.173,0.1742,0.1742,0.1778,0.1769,0.177,0.1772,0.1788,0.179,0.1792,0.1766,0.1766,0.1766,0,0,0.151,0.1525,0.1543,0.1559,0.1582,0.1596,0.16,0.1626,0.1636,0.1661,0.1671,0.1689,0.1724,0.1741,0.1754,0.1773,0.178,0.1779,0.1784,0.1799,0.1801,0.1803,0.1811,0.1814,0.1781,0.1781,0.1781,0,0.1508,0.1536,0.1551,0.1571,0.1584,0.1596,0.1615,0.163,0.1659,0.1669,0.1668,0.1713,0.173,0.1761,0.1765,0.1775,0.1782,0.1777,0.18,0.1801,0.1803,0.1811,0.1814,0.1781,0.1781,0.1781,0.1781,0,0.1533,0.1553,0.1564,0.1592,0.1607,0.1626,0.1645,0.1659,0.1668,0.1681,0.1708,0.1729,0.1754,0.1762,0.1771,0.1794,0.1794,0.1796,0.1794,0.1805,0.1813,0.1816,0.1781,0.1781,0.1781,0.1781,0,0,0.1537,0.1574,0.1578,0.1592,0.162,0.1636,0.1656,0.1681,0.1693,0.1713,0.1732,0.1762,0.1764,0.1779,0.179,0.1804,0.182,0.1805,0.1805,0.1808,0.1849,0.1848,0.1851,0.1824,0.1825,0.1825,0.1847,0,0.1552,0.1588,0.1603,0.1633,0.1652,0.1664,0.1682,0.1702,0.1716,0.1735,0.1751,0.1773,0.1774,0.1783,0.1797,0.1815,0.1828,0.1813,0.1843,0.1844,0.1837,0.1855,0.1853,0.1873,0.185,0.1851,0.1851,0,0.1574,0.1595,0.1626,0.1653,0.1662,0.1678,0.1703,0.1721,0.1744,0.1753,0.1771,0.1781,0.1805,0.1801,0.1835,0.1824,0.1837,0.1848,0.1849,0.1853,0.1849,0.186,0.188,0.1883,0.1856,0.1856,0.1855,0,0.1575,0.1611,0.1635,0.1646,0.1678,0.1689,0.1703,0.1726,0.1741,0.1763,0.1773,0.1797,0.1811,0.1831,0.1848,0.1844,0.188,0.1878,0.189,0.189,0.1897,0.1897,0.192,0.1904,0.1904,0.1904,0.1904,0,0.1591,0.161,0.1636,0.1651,0.1674,0.1691,0.1713,0.1728,0.1749,0.1768,0.178,0.1798,0.1819,0.184,0.1854,0.188,0.1886,0.1895,0.1899,0.1895,0.1894,0.1904,0.1904,0.1905,0.1905,0.1905,0.1904,0,0.1596,0.1614,0.1641,0.167,0.1677,0.1693,0.1718,0.1733,0.1748,0.1772,0.1779,0.1803,0.1828,0.1848,0.1881,0.189,0.1919,0.1922,0.1911,0.1913,0.1924,0.1923,0.1956,0.1962,0.1941,0.1941,0.1941,0,0.1605,0.162,0.1651,0.1664,0.1678,0.1699,0.1715,0.1733,0.1749,0.1777,0.179,0.1816,0.1838,0.1879,0.19,0.1925,0.193,0.194,0.1934,0.193,0.1932,0.1931,0.1934,0.1941,0.1941,0.1941,0.1941,0,0.162,0.1628,0.1649,0.1674,0.1692,0.1713,0.1734,0.1744,0.1767,0.1784,0.181,0.1827,0.1862,0.1888,0.1916,0.1932,0.1941,0.1943,0.1947,0.1943,0.1937,0.1942,0.1914,0.1942,0.1942,0.1942,0.1942,0.1942,0.1628,0.1643,0.1667,0.1691,0.1708,0.1728,0.1745,0.1762,0.1784,0.1813,0.1823,0.1851,0.1876,0.1914,0.1931,0.1953,0.1953,0.1959,0.1961,0.1963,0.1963,0.1933,0.1958,0.1958,0.1958,0.1958,0.1958,0,0.1644,0.1661,0.1682,0.1712,0.1731,0.1737,0.1761,0.1777,0.1801,0.1823,0.1845,0.1876,0.1903,0.1926,0.1954,0.1968,0.1973,0.1975,0.1974,0.1978,0.196,0.1954,0.197,0.197,0.197,0.197,0.197,0.197,0.1655,0.1681,0.1693,0.1728,0.1745,0.1772,0.1785,0.1804,0.1822,0.1856,0.1878,0.1893,0.1917,0.1947,0.1972,0.1978,0.1989,0.199,0.1997,0.198,0.1979,0.1978,0.1972,0.1991,0.1991,0.2013,0.2013,0.2014]}]]